DELTA 1 DEB, 42640

Orbit data source: Space-Track

DELTA 1 DEB, 42640 is space debris in SSO originally from a launch on Thu, 12 Jun 1975 UTC launched from the Air Force Western Test Range (AFWTR). Debris objects in space refer to the collection of defunct objects orbiting the Earth. Examples of debris include non-operational satellites, rocket bodies, and fragments generated from explosions, collisions, or faulty payload assembly.

Loading next visibility...
Identifier
42640, 1975-052LZ
Orbit
SSO
Country
Flag of USUS
Related business
Manufacturer
Unknown
Mission
Spacecraft
Bus & Motor
Unknown
Mass
Unknown
Launch date (UTC)
1975-06-12 (51 years ago)
Launch vehicle
Unknown
Launch site
Air Force Western Test Range (AFWTR)
Object type
Payload
Rocket body
Debris
Shape & HBR
Unknown shape, 0.1 m
Radar Cross Section
Small (<0.1 m²)

Expand to show TLE details & history
Last TLE update: 1 day ago

TLE from 1 day ago
0 DELTA 1 DEB
1 42640U 75052LZ  25349.42374584  .00000527  00000-0  84059-3 0  9998
2 42640  99.7968 157.9033 0216321 160.0836 231.3183 13.45105354591347
Epoch: 2025-12-15T10:10Z
TLE epoch observation values (Epoch: 2025-12-15T10:10:11.640Z)
Latitude
29.07337°
Longitude
-84.44889°
Altitude
1,196.89 km
Speed
7.208 km/s
True Right ascension
10h 09m 41s
True Declination
28° 56' 10"
Sunlit
Object was in daylight at epoch
Visualization orbit readout
Latitude
Unknown
Longitude
Unknown
Altitude
Unknown
Speed
Unknown
Apparent Right ascension
Unknown
Apparent Declination
Unknown
Sunlit
N/A
Visualization observer readout
Local Sidereal Time
19:47:15
Azimuth
Unknown
Elevation
Unknown
Doppler factor
Unknown
Orbital elements
Apogee altitude
1,249.133 km
Perigee altitude
926.132 km
Semi-major axis
7,465.77 km
Eccentricity
0.02163
Inclination
99.7968°
RAAN
157.9033°
Arg. of periapsis
160.0836°
True anomaly
229.41576°
Mean anomaly
231.3183°
Eccentric anomaly
230.3638°
Mean motion
3.36458 °/min
Orbital period
107 mins
BSTAR
0.00084059
Loading maneuver chart data...
Computing Atmospheric mass density...

Documentation

Showing up to 5 results
|